Location: Unspecified
(13.8170°N, 0.0000°E)
Time: 22:23:35
(UTC+00:00)

ISS - Visible Passes

Search period start: 21 April 2019 00:00
Search period end: 01 May 2019 00:00
Orbit: 408 x 410 km, 51.6° (Epoch: 22 April)

Date Brightness Start Highest point End Pass type
(mag) Time Alt. Az. Time Alt. Az. Time Alt. Az.
22 Apr -3.3 05:08:42 10° SSW 05:11:58 60° SE 05:15:12 10° NE visible
23 Apr -1.7 04:19:48 17° SSE 04:21:15 23° SE 04:23:54 10° ENE visible
24 Apr -2.7 05:04:34 14° WSW 05:06:51 28° NW 05:09:45 10° N visible
25 Apr -3.7 04:16:23 66° N 04:16:23 66° N 04:19:20 10° NNE visible
26 Apr -0.3 03:28:06 12° ENE 03:28:06 12° ENE 03:28:21 10° ENE visible
27 Apr -1.3 04:12:26 14° NNW 04:12:26 14° NNW 04:13:18 10° N visible
